Weather History for Greenville, MS

Change the Weather History Date:

Monday, December 2, 2013

  Actual Average Record
Temperature  
Mean Temperature 56 °F 48 °F  
Max Temperature 64 °F 58 °F 80 °F (1950)
Min Temperature 47 °F 38 °F 18 °F (1960)
Degree Days  
Heating Degree Days 9 17  
Month to date heating degree days 23 34  
Since 1 July heating degree days 557 496  
Cooling Degree Days 0 0  
Month to date cooling degree days 0 0  
Year to date cooling degree days 2247 2186  
Growing Degree Days 6 (Base 50)    
Moisture  
Dew Point 51 °F    
Average Humidity 86    
Maximum Humidity 100    
Minimum Humidity 72    
Precipitation  
Precipitation 0.01 in 0.21 in 2.00 in (1934)
Month to date precipitation 0.01 0.42  
Year to date precipitation 48.32 47.44  
Sea Level Pressure  
Sea Level Pressure 29.80 in    
Wind  
Wind Speed 4 mph (South)    
Max Wind Speed 8 mph    
Max Gust Speed 10 mph    
Visibility 6 miles    
Events Fog , Rain    
T = Trace of Precipitation, MM = Missing Value Source: NWS Daily Summary

Daily Weather History Graph

Daily Weather History Graph

Search for Another Location

Airport:

Trip Planner

Search our weather history database for the weather conditions in past years. The results will help you decide how hot, cold, wet, or windy it might be!

Date:

Astronomy

Dec. 02, 2013 Rise Set
Actual Time 6:51 AM CST 4:55 PM CST
Civil Twilight 6:23 AM CST 5:23 PM CST
Nautical Twilight 5:53 AM CST 5:53 PM CST
Astronomical Twilight 5:23 AM CST 6:23 PM CST
Moon 6:18 AM CST (12/2) 4:57 PM CST (12/2)
Length of Visible Light 10h 59m
Length of Day
10h 04m
Waning Crescent, 0% of the Moon is Illuminated
Dec 2
Waning Crescent
Dec 2
New
Dec 9
First Quarter
Dec 17
Full
Dec 25
Last Quarter

Hourly Weather History & Observations

Time (CST) Temp. Dew Point Humidity Pressure Visibility Wind Dir Wind Speed Gust Speed Precip Events Conditions
12:53 AM 52.0 °F 46.9 °F 83% 29.94 in 10.0 mi South 4.6 mph - N/A   Mostly Cloudy
1:53 AM 52.0 °F 48.0 °F 86% 29.92 in 10.0 mi South 4.6 mph - N/A   Overcast
2:44 AM 53.6 °F 48.2 °F 82% 29.88 in 10.0 mi Calm Calm - N/A   Overcast
2:53 AM 54.0 °F 48.9 °F 83% 29.90 in 10.0 mi South 5.8 mph - N/A   Overcast
3:25 AM 51.8 °F 48.2 °F 88% 29.87 in 10.0 mi South 6.9 mph - N/A   Mostly Cloudy
3:53 AM 53.1 °F 48.9 °F 86% 29.88 in 10.0 mi South 5.8 mph - N/A   Overcast
4:21 AM 53.6 °F 48.2 °F 82% 29.85 in 10.0 mi South 4.6 mph - 0.00 in   Mostly Cloudy
4:53 AM 54.0 °F 50.0 °F 86% 29.87 in 9.0 mi SSW 4.6 mph - 0.00 in Rain Light Rain
5:53 AM 54.0 °F 50.0 °F 86% 29.86 in 10.0 mi South 4.6 mph - 0.00 in   Overcast
6:53 AM 53.1 °F 50.0 °F 89% 29.86 in 10.0 mi South 3.5 mph - N/A   Overcast
7:53 AM 55.0 °F 51.1 °F 86% 29.86 in 10.0 mi South 3.5 mph - N/A   Overcast
8:53 AM 57.0 °F 53.1 °F 87% 29.86 in 10.0 mi Calm Calm - 0.00 in   Overcast
9:50 AM 59.0 °F 53.6 °F 82% 29.84 in 10.0 mi SSW 6.9 mph - N/A   Overcast
9:53 AM 59.0 °F 53.1 °F 81% 29.86 in 10.0 mi SSW 5.8 mph - N/A   Overcast
10:53 AM 60.1 °F 53.1 °F 78% 29.84 in 10.0 mi SSW 6.9 mph - N/A   Overcast
11:53 AM 62.1 °F 54.0 °F 75% 29.80 in 10.0 mi SW 5.8 mph - N/A   Overcast
12:53 PM 63.0 °F 55.0 °F 75% 29.77 in 10.0 mi SSW 5.8 mph - N/A   Overcast
1:53 PM 63.0 °F 55.0 °F 75% 29.75 in 10.0 mi South 5.8 mph - N/A   Overcast
2:22 PM 62.6 °F 55.4 °F 77% 29.73 in 10.0 mi SSW 5.8 mph - N/A   Overcast
2:31 PM 62.6 °F 55.4 °F 77% 29.73 in 10.0 mi SSW 4.6 mph - N/A   Overcast
2:53 PM 63.0 °F 55.0 °F 75% 29.75 in 10.0 mi SW 5.8 mph - N/A   Overcast
3:53 PM 63.0 °F 55.9 °F 78% 29.74 in 10.0 mi SSW 3.5 mph - N/A   Overcast
4:53 PM 61.0 °F 55.9 °F 83% 29.75 in 9.0 mi South 3.5 mph - N/A   Overcast
5:53 PM 57.0 °F 55.0 °F 93% 29.75 in 6.0 mi Calm Calm - N/A   Mostly Cloudy
6:45 PM 53.6 °F 51.8 °F 94% 29.74 in 1.8 mi ESE 3.5 mph - N/A   Scattered Clouds
6:48 PM 53.6 °F 51.8 °F 94% 29.74 in 0.8 mi ESE 3.5 mph - N/A   Scattered Clouds
6:53 PM 53.1 °F 52.0 °F 96% 29.76 in 0.2 mi Calm Calm - N/A Fog Fog
7:06 PM 51.8 °F 51.8 °F 100% 29.74 in 0.2 mi ESE 3.5 mph - N/A Fog Fog
7:50 PM 51.8 °F 51.8 °F 100% 29.75 in 0.5 mi SSE 3.5 mph - N/A Fog Fog
7:53 PM 51.1 °F 50.0 °F 96% 29.77 in 0.5 mi SSE 3.5 mph - N/A Fog Fog
8:00 PM 51.8 °F 50.0 °F 94% 29.75 in 0.2 mi SE 3.5 mph - N/A Fog Fog
8:13 PM 50.0 °F 48.2 °F 94% 29.74 in 0.2 mi SE 3.5 mph - N/A Fog Fog
8:48 PM 48.2 °F 46.4 °F 93% 29.74 in 0.2 mi Calm Calm - N/A Fog Fog
8:53 PM 48.9 °F 48.0 °F 97% 29.77 in 0.2 mi Calm Calm - N/A Fog Fog
9:53 PM 48.0 °F 46.9 °F 96% 29.77 in 0.2 mi SE 3.5 mph - N/A Fog Fog
10:53 PM 52.0 °F 52.0 °F 100% 29.76 in 0.2 mi Calm Calm - 0.01 in Fog Fog
11:19 PM 51.8 °F 51.8 °F 100% 29.74 in 0.2 mi Calm Calm - N/A Fog Fog
11:41 PM 51.8 °F 51.8 °F 100% 29.74 in 0.2 mi SE 6.9 mph - N/A Fog Fog
11:53 PM 52.0 °F 52.0 °F 100% 29.76 in 0.2 mi SE 4.6 mph - N/A Fog Fog